Skip Page Navigation
NASA JPL Caltech
NASA Logo - Jet Propulsion Laboratory + View the NASA Portal
+ Center for Near-Earth Object Studies
JPL Home Earth Solar System Stars & Galaxies Technology
JPL Solar System Dynamics
BODIES ORBITS EPHEMERIDES TOOLS PHYSICAL DATA DISCOVERY FAQ SITE MAP
IMPORTANT: The SSD Announcement email list is now available. Major changes are coming in the near future, including possible hostname and/or URL changes. To be notified of such changes, subscribe to this email list.

Please visit this page for more details.


JPL Small-Body Database Browser
Search: [ help ]  
312642 (2010 BH62)
Classification: Jupiter Trojan          SPK-ID: 2312642
Ephemeris | Orbit Diagram | Orbital Elements | Mission Design | Physical Parameters | Discovery Circumstances ]

[ show orbit diagram ]
Orbital Elements at Epoch 2458600.5 (2019-Apr-27.0) TDB
Reference: JPL 9 (heliocentric ecliptic J2000)
 Element Value Uncertainty (1-sigma)   Units 
e .04613580357059092 8.0391e-08  
a 5.164793855382925 3.0294e-07 au
q 4.926511940588384 6.4194e-07 au
i 10.8294717636159 8.4223e-06 deg
node 288.2028366391772 4.0831e-05 deg
peri 153.8924298158156 0.00012686 deg
M 253.7872226114036 0.000126 deg
tp 2459865.388312143288
(2022-Oct-12.88831214)
0.0015658 TDB
period 4287.241173494383
11.74
0.00037719
1.033e-06
d
yr
n .08397008365791941 7.3878e-09 deg/d
Q 5.403075770177467 3.1691e-07 au
  Orbit Determination Parameters
   # obs. used (total)      196  
   data-arc span      8852 days (24.24 yr)  
   first obs. used      1995-07-03  
   last obs. used      2019-09-27  
   planetary ephem.      DE431  
   SB-pert. ephem.      SB431-N16  
   condition code      0  
   norm. resid. RMS      .44807  
   source      ORB  
   producer      Otto Matic  
   solution date      2019-Nov-08 08:12:09  

Additional Information
 Earth MOID = 3.94639 au 
 Jupiter MOID = .199578 au 
 T_jup = 2.962 
[ show covariance matrix ]

Ephemeris | Orbit Diagram | Orbital Elements | Mission Design | Physical Parameters | Discovery Circumstances ]

Physical Parameter Table
Parameter Symbol Value Units Sigma Reference Notes
absolute magnitude H 13.3   n/a MPO455304  
diameter diameter 11.936 km 1.709 urn:nasa:pds:neowise_diameters_albedos::2.0[jupiter_trojans] (http://adsabs.harvard.edu/abs/2011ApJ...742...40G)  
geometric albedo albedo 0.071   0.025 urn:nasa:pds:neowise_diameters_albedos::2.0[jupiter_trojans] (http://adsabs.harvard.edu/abs/2011ApJ...742...40G)  

312642 (2010 BH62)          Discovered 2010-Jan-21 by WISE at WISE
Reference: 20120109/Numbers.arcLast Updated: 2012-01-11
Ephemeris | Orbit Diagram | Orbital Elements | Mission Design | Physical Parameters | Discovery Circumstances ]
ABOUT SSD CREDITS/AWARDS PRIVACY/COPYRIGHT GLOSSARY LINKS
FirstGov 2019-Dec-10 19:21 UT
(server date/time)  
NASA Home Page
Site Manager:   Ryan S. Park
Webmaster  Alan B. Chamberlin